Regional Weather Roundup
Issued by NWS

Home | Current Version | Previous Version | Text Only | Print | Product List | Glossary Off
Versions: 1 2 3 4 5 6 7 8 9 10 11 12 13 14 15 16 17 18 19 20 21 22 23 24 25 26 27 28 29 30 31 32 33 34 35 36 37 38 39 40 41 42 43 44 45 46 47 48 49 50

250
ASUS43 KBIS 110802
RWRND

NORTH DAKOTA REGIONAL WEATHER ROUNDUP
NATIONAL WEATHER SERVICE BISMARCK ND
200 AM CST SUN DEC 11 2016

NOTE: "FAIR" INDICATES FEW OR NO CLOUDS BELOW 12,000 FEET WITH NO
SIGNIFICANT WEATHER AND/OR OBSTRUCTIONS TO VISIBILITY.


NDZ001>003-009>011-017-110900-
NORTHWEST NORTH DAKOTA

CITY           SKY/WX    TMP DP  RH WIND       PRES   REMARKS
WILLISTON      CLOUDY     0  -7  72 SE8       29.93R WCI -14
MINOT          LGT SNOW  -2  -7  79 E12       29.97F VSB 3/4 WCI -20
MINOT AFB      LGT SNOW  -3  -7  82 E14       29.97F WCI -23
$$

NDZ018>021-031>035-040>046-110900-
SOUTHWEST NORTH DAKOTA

CITY           SKY/WX    TMP DP  RH WIND       PRES   REMARKS
BISMARCK       LGT SNOW   0  -4  83 NE9       29.97F FOG     WCI -15
DICKINSON      LGT SNOW  -1  -6  79 SE10      29.81F WCI -17
GARRISON         N/A     -3  -8  79 E14       29.93F WCI -22
HETTINGER ARPT CLOUDY     0  -4  83 CALM      29.84F
$$

NDZ004>008-012>016-024-026-027-054-110900-
NORTHEAST NORTH DAKOTA

CITY           SKY/WX    TMP DP  RH WIND       PRES   REMARKS
GRAND FORKS    CLOUDY    -3  -9  75 NE6       30.15F WCI -15
GRND FRKS AFB  CLOUDY    -6 -11  78 NE6       30.14F WCI -19
DEVILS LAKE    FLURRIES  -3  -6  87 E12       30.05F WCI -21
$$

NDZ022-023-025-028>030-036>039-047>053-110900-
SOUTHEAST NORTH DAKOTA

CITY           SKY/WX    TMP DP  RH WIND       PRES   REMARKS
FARGO          CLOUDY     9   2  73 NE10      30.05F WCI  -5
JAMESTOWN      LGT SNOW   1  -3  83 E7        29.99F VSB 1   WCI -12
$$





USA.gov is the U.S. government's official web portal to all federal, state and local government web resources and services.